{"data":{"norad_id":49202,"epoch":"2026-09-19T08:06:43.509312Z","epoch_age_seconds":127467,"freshness":"FRESH","line1":"1 49202U 21083S   26262.33800358  .00000244  00000+0  63291-3 0  9992","line2":"2 49202  87.8918 301.4918 0002033 104.2175 255.9180 13.13468275243272","mean_motion":13.13468275,"eccentricity":0.0002033,"inclination_deg":87.8918,"raan_deg":301.4918,"arg_perigee_deg":104.2175,"mean_anomaly_deg":255.918,"bstar":0.00063291,"rev_number":24327,"period_min":109.6334054966,"perigee_km":1208.2294215369,"apogee_km":1211.314665354,"semimajor_km":7587.9090434455,"source":"CELESTRAK","updated_at":"2026-09-20T09:00:44.663711Z"}}